User: anonymous   Login
Location: Sperry Observatory
(40.6664°N, 74.3236°W)
Time: 18:14:06
(UTC-04:00)
Language:

FO-29 - Orbit

View from above orbital plane
View from above orbital plane
View from above satellite
View from above satellite

Ground track
Ground track

The orbit data is extracted from the following two-line orbital elements,

1 24278U 96046B   17289.13833696  .00000008  00000-0  43280-4 0  9993
2 24278  98.5424 156.1909 0350890  24.0920 337.6197 13.53079595 45237
Epoch (UTC): 16 October 2017 03:19:12
Eccentricity: 0.0350890
inclination: 98.5424°
perigee height: 800 km
apogee height: 1322 km
right ascension of ascending node: 156.1909°
argument of perigee: 24.0920°
revolutions per day: 13.53079595
mean anomaly at epoch: 337.6197°
orbit number at epoch: 4523

The dashed part of the orbit path shows where the satellite is in the earth's shadow,  

DLR